Time,TemperatureF,DewpointF,PressureIn,WindDirection,WindDirectionDegrees,WindSpeedMPH,WindSpeedGustMPH,Humidity,HourlyPrecipIn,Conditions,Clouds,dailyrainin,SolarRadiationWatts/m^2,SoftwareType,DateUTC
2013-07-08 00:00:00,57.3,52.5,30.59,ESE,122,5.8,5.8,84,0.00,CLR,,0.00,0.0,WeatherDisplay:10.37,2013-07-07 23:00:00,
2013-07-08 00:05:00,57.3,52.5,30.59,SE,133,6.9,6.9,84,0.00,CLR,,0.00,0.0,WeatherDisplay:10.37,2013-07-07 23:05:00,
2013-07-08 00:10:00,57.1,52.3,30.59,ESE,116,6.9,6.9,84,0.00,CLR,,0.00,0.0,WeatherDisplay:10.37,2013-07-07 23:10:00,
2013-07-08 00:15:00,57.0,52.2,30.59,ESE,118,6.9,6.9,84,0.00,CLR,,0.00,0.0,WeatherDisplay:10.37,2013-07-07 23:15:00,
2013-07-08 00:20:00,56.8,52.3,30.60,ESE,115,11.5,11.5,85,0.00,CLR,,0.00,0.0,WeatherDisplay:10.37,2013-07-07 23:20:00,
2013-07-08 00:25:00,56.7,52.2,30.60,ESE,119,7.0,7.0,85,0.00,CLR,,0.00,0.0,WeatherDisplay:10.37,2013-07-07 23:25:00,
2013-07-08 00:30:00,56.6,52.1,30.60,ESE,119,11.5,11.5,85,0.00,CLR,,0.00,0.0,WeatherDisplay:10.37,2013-07-07 23:30:00,
2013-07-08 00:35:00,56.5,52.0,30.60,ESE,123,4.6,4.6,85,0.00,CLR,,0.00,0.0,WeatherDisplay:10.37,2013-07-07 23:35:00,
2013-07-08 00:40:00,56.3,52.2,30.61,SE,127,11.5,11.5,86,0.00,CLR,,0.00,0.0,WeatherDisplay:10.37,2013-07-07 23:40:00,
2013-07-08 00:45:00,56.3,52.2,30.60,ESE,115,7.0,7.0,86,0.00,CLR,,0.00,0.0,WeatherDisplay:10.37,2013-07-07 23:45:00,
2013-07-08 00:50:00,56.2,52.1,30.60,ESE,118,9.2,9.2,86,0.00,CLR,,0.00,0.0,WeatherDisplay:10.37,2013-07-07 23:50:00,
2013-07-08 00:55:00,56.1,52.0,30.60,ESE,123,9.2,9.2,86,0.00,CLR,,0.00,0.0,WeatherDisplay:10.37,2013-07-07 23:55:00,
2013-07-08 01:00:00,56.0,51.9,30.60,SE,128,9.2,9.2,86,0.00,CLR,,0.00,0.0,WeatherDisplay:10.37,2013-07-08 00:00:00,
2013-07-08 01:05:00,55.9,52.1,30.60,SE,126,10.0,10.0,87,0.00,CLR,,0.00,0.0,WeatherDisplay:10.37,2013-07-08 00:05:00,
2013-07-08 01:10:00,55.9,52.1,30.60,SE,128,10.4,10.4,87,0.00,CLR,,0.00,0.0,WeatherDisplay:10.37,2013-07-08 00:10:00,
2013-07-08 01:15:00,55.8,52.0,30.60,ESE,123,5.8,5.8,87,0.00,CLR,,0.00,0.0,WeatherDisplay:10.37,2013-07-08 00:15:00,
2013-07-08 01:20:00,55.8,52.0,30.61,ESE,121,5.8,5.8,87,0.00,CLR,,0.00,0.0,WeatherDisplay:10.37,2013-07-08 00:20:00,
2013-07-08 01:25:00,55.8,52.0,30.60,ESE,106,8.1,8.1,87,0.00,CLR,,0.00,0.0,WeatherDisplay:10.37,2013-07-08 00:25:00,
2013-07-08 01:30:00,55.8,52.0,30.60,ESE,123,4.6,4.6,87,0.00,CLR,,0.00,0.0,WeatherDisplay:10.37,2013-07-08 00:30:00,
2013-07-08 01:35:00,55.7,51.9,30.60,ESE,110,6.9,6.9,87,0.00,CLR,,0.00,0.0,WeatherDisplay:10.37,2013-07-08 00:35:00,
2013-07-08 01:40:00,55.7,51.9,30.60,ESE,119,5.8,5.8,87,0.00,CLR,,0.00,0.0,WeatherDisplay:10.37,2013-07-08 00:40:00,
2013-07-08 01:45:00,55.7,51.9,30.61,SE,128,4.0,4.0,87,0.00,CLR,,0.00,0.0,WeatherDisplay:10.37,2013-07-08 00:45:00,
2013-07-08 01:50:00,55.7,51.9,30.61,SE,129,6.9,6.9,87,0.00,CLR,,0.00,0.0,WeatherDisplay:10.37,2013-07-08 00:50:00,
2013-07-08 01:55:00,55.7,51.9,30.61,ESE,120,3.5,3.6,87,0.00,CLR,,0.00,0.0,WeatherDisplay:10.37,2013-07-08 00:55:00,
2013-07-08 02:00:00,55.7,51.9,30.61,ESE,114,5.8,5.8,87,0.00,CLR,,0.00,0.0,WeatherDisplay:10.37,2013-07-08 01:00:00,
2013-07-08 02:05:00,55.6,51.8,30.61,ESE,115,3.5,3.5,87,0.00,CLR,,0.00,0.0,WeatherDisplay:10.37,2013-07-08 01:05:00,
2013-07-08 02:11:00,55.6,51.8,30.61,ESE,121,5.8,5.8,87,0.00,CLR,,0.00,0.0,WeatherDisplay:10.37,2013-07-08 01:11:00,
2013-07-08 02:16:00,55.5,52.0,30.61,ESE,118,5.8,5.8,88,0.00,CLR,,0.00,0.0,WeatherDisplay:10.37,2013-07-08 01:16:00,
2013-07-08 02:21:00,55.5,52.0,30.61,SE,126,6.0,6.0,88,0.00,CLR,,0.00,0.0,WeatherDisplay:10.37,2013-07-08 01:21:00,
2013-07-08 02:26:00,55.5,52.0,30.61,ESE,121,6.0,6.0,88,0.00,CLR,,0.00,0.0,WeatherDisplay:10.37,2013-07-08 01:26:00,
2013-07-08 02:31:00,55.5,52.0,30.61,ESE,106,5.8,5.8,88,0.00,CLR,,0.00,0.0,WeatherDisplay:10.37,2013-07-08 01:31:00,
2013-07-08 02:36:00,55.4,51.9,30.60,ESE,107,5.8,5.8,88,0.00,CLR,,0.00,0.0,WeatherDisplay:10.37,2013-07-08 01:36:00,
2013-07-08 02:41:00,55.4,51.9,30.60,ESE,114,2.3,2.3,88,0.00,CLR,,0.00,0.0,WeatherDisplay:10.37,2013-07-08 01:41:00,
2013-07-08 02:46:00,55.4,51.9,30.60,ESE,121,3.5,3.5,88,0.00,CLR,,0.00,0.0,WeatherDisplay:10.37,2013-07-08 01:46:00,
2013-07-08 02:51:00,55.4,51.9,30.60,ESE,119,4.6,4.6,88,0.00,CLR,,0.00,0.0,WeatherDisplay:10.37,2013-07-08 01:51:00,
2013-07-08 02:56:00,55.4,51.9,30.60,ESE,119,4.6,4.6,88,0.00,CLR,,0.00,0.0,WeatherDisplay:10.37,2013-07-08 01:56:00,
2013-07-08 03:01:00,55.4,51.9,30.60,ESE,114,3.5,3.5,88,0.00,CLR,,0.00,0.0,WeatherDisplay:10.37,2013-07-08 02:01:00,
2013-07-08 03:06:00,55.4,51.9,30.60,ESE,108,5.0,5.0,88,0.00,CLR,,0.00,0.0,WeatherDisplay:10.37,2013-07-08 02:06:00,
2013-07-08 03:11:00,55.4,51.9,30.60,ESE,110,6.9,6.9,88,0.00,CLR,,0.00,0.0,WeatherDisplay:10.37,2013-07-08 02:11:00,
2013-07-08 03:16:00,55.3,51.8,30.60,ESE,117,5.8,5.8,88,0.00,CLR,,0.00,0.0,WeatherDisplay:10.37,2013-07-08 02:16:00,
2013-07-08 03:21:00,55.3,51.8,30.60,ESE,121,4.6,4.6,88,0.00,CLR,,0.00,0.0,WeatherDisplay:10.37,2013-07-08 02:21:00,
2013-07-08 03:26:00,55.3,51.8,30.60,SE,128,6.9,6.9,88,0.00,CLR,,0.00,0.0,WeatherDisplay:10.37,2013-07-08 02:26:00,
2013-07-08 03:31:00,55.2,51.7,30.60,SE,127,5.0,5.0,88,0.00,CLR,,0.00,0.0,WeatherDisplay:10.37,2013-07-08 02:31:00,
2013-07-08 03:36:00,55.2,51.7,30.60,ESE,123,4.6,4.6,88,0.00,CLR,,0.00,0.0,WeatherDisplay:10.37,2013-07-08 02:36:00,
2013-07-08 03:41:00,55.2,51.7,30.60,ESE,115,6.9,6.9,88,0.00,CLR,,0.00,0.0,WeatherDisplay:10.37,2013-07-08 02:41:00,
2013-07-08 03:46:00,55.1,51.6,30.60,ESE,115,4.6,4.6,88,0.00,CLR,,0.00,0.0,WeatherDisplay:10.37,2013-07-08 02:46:00,
2013-07-08 03:51:00,55.1,51.9,30.60,ESE,117,3.5,3.5,89,0.00,CLR,,0.00,0.0,WeatherDisplay:10.37,2013-07-08 02:51:00,
2013-07-08 03:56:00,55.1,51.9,30.60,ESE,121,5.0,5.0,89,0.00,CLR,,0.00,0.0,WeatherDisplay:10.37,2013-07-08 02:56:00,
2013-07-08 04:01:00,55.1,51.9,30.60,ESE,121,4.6,4.6,89,0.00,CLR,,0.00,0.0,WeatherDisplay:10.37,2013-07-08 03:01:00,
2013-07-08 04:06:00,55.1,51.9,30.60,SE,124,3.5,3.5,89,0.00,CLR,,0.00,0.0,WeatherDisplay:10.37,2013-07-08 03:06:00,
2013-07-08 04:11:00,55.2,52.0,30.60,SE,125,3.5,3.5,89,0.00,OVC,,0.00,0.0,WeatherDisplay:10.37,2013-07-08 03:11:00,
2013-07-08 04:16:00,55.2,52.0,30.60,SE,126,4.6,4.6,89,0.00,OVC,,0.00,0.0,WeatherDisplay:10.37,2013-07-08 03:16:00,
2013-07-08 04:21:00,55.2,52.0,30.60,SE,128,3.5,3.5,89,0.00,OVC,,0.00,0.0,WeatherDisplay:10.37,2013-07-08 03:21:00,
2013-07-08 04:26:00,55.2,52.0,30.60,SE,128,3.5,3.5,89,0.00,OVC,,0.00,0.0,WeatherDisplay:10.37,2013-07-08 03:26:00,
2013-07-08 04:31:00,55.2,52.0,30.60,SE,128,3.5,3.5,89,0.00,OVC,,0.00,0.0,WeatherDisplay:10.37,2013-07-08 03:31:00,
2013-07-08 04:36:00,55.1,51.9,30.60,SE,128,3.5,3.5,89,0.00,OVC,,0.00,0.0,WeatherDisplay:10.37,2013-07-08 03:36:00,
2013-07-08 04:41:00,55.1,51.9,30.60,SE,128,4.6,4.6,89,0.00,OVC,,0.00,0.0,WeatherDisplay:10.37,2013-07-08 03:41:00,
2013-07-08 04:46:00,55.1,51.9,30.60,SE,128,3.5,3.5,89,0.00,OVC,,0.00,0.0,WeatherDisplay:10.37,2013-07-08 03:46:00,
2013-07-08 04:51:00,55.1,51.9,30.60,SE,128,3.5,3.5,89,0.00,OVC,,0.00,0.0,WeatherDisplay:10.37,2013-07-08 03:51:00,
2013-07-08 04:56:00,55.1,51.9,30.60,SE,130,2.3,2.3,89,0.00,OVC,,0.00,0.0,WeatherDisplay:10.37,2013-07-08 03:56:00,
2013-07-08 05:01:00,55.1,51.9,30.60,SE,124,4.6,4.6,89,0.00,OVC,,0.00,0.0,WeatherDisplay:10.37,2013-07-08 04:01:00,
2013-07-08 05:06:00,55.1,51.9,30.60,SE,125,4.6,4.6,89,0.00,OVC,,0.00,0.0,WeatherDisplay:10.37,2013-07-08 04:06:00,
2013-07-08 05:11:00,55.1,51.9,30.60,SE,126,3.5,3.5,89,0.00,OVC,,0.00,0.0,WeatherDisplay:10.37,2013-07-08 04:11:00,
2013-07-08 05:16:00,55.1,51.9,30.60,SE,127,3.5,3.5,89,0.00,OVC,,0.00,0.0,WeatherDisplay:10.37,2013-07-08 04:16:00,
2013-07-08 05:21:00,55.2,52.0,30.60,SE,128,3.5,3.5,89,0.00,OVC,,0.00,5.0,WeatherDisplay:10.37,2013-07-08 04:21:00,
2013-07-08 05:26:00,55.2,52.0,30.60,SE,128,3.5,3.5,89,0.00,OVC,,0.00,5.0,WeatherDisplay:10.37,2013-07-08 04:26:00,
2013-07-08 05:31:00,55.2,52.0,30.60,SE,127,3.5,3.5,89,0.00,OVC,,0.00,5.0,WeatherDisplay:10.37,2013-07-08 04:31:00,
2013-07-08 05:36:00,55.2,52.0,30.60,SE,126,1.2,1.2,89,0.00,OVC,,0.00,5.0,WeatherDisplay:10.37,2013-07-08 04:36:00,
2013-07-08 05:41:00,55.2,52.0,30.60,SE,128,3.5,3.5,89,0.00,OVC,,0.00,7.0,WeatherDisplay:10.37,2013-07-08 04:41:00,
2013-07-08 05:46:00,55.2,52.0,30.60,SE,125,4.0,4.0,89,0.00,OVC,,0.00,7.0,WeatherDisplay:10.37,2013-07-08 04:46:00,
2013-07-08 05:52:00,55.2,52.0,30.60,ESE,120,3.5,3.5,89,0.00,OVC,,0.00,7.0,WeatherDisplay:10.37,2013-07-08 04:52:00,
2013-07-08 05:57:00,55.3,52.1,30.60,ESE,120,0.0,0.0,89,0.00,OVC,,0.00,7.0,WeatherDisplay:10.37,2013-07-08 04:57:00,
2013-07-08 06:02:00,55.3,52.1,30.60,ESE,119,3.5,3.5,89,0.00,OVC,,0.00,7.0,WeatherDisplay:10.37,2013-07-08 05:02:00,
2013-07-08 06:07:00,55.4,52.2,30.60,ESE,119,3.5,3.5,89,0.00,OVC,,0.00,11.0,WeatherDisplay:10.37,2013-07-08 05:07:00,
2013-07-08 06:12:00,55.4,52.2,30.60,ESE,119,2.3,2.3,89,0.00,OVC,,0.00,11.0,WeatherDisplay:10.37,2013-07-08 05:12:00,
2013-07-08 06:17:00,55.4,52.2,30.60,ESE,119,3.5,3.5,89,0.00,OVC,,0.00,9.0,WeatherDisplay:10.37,2013-07-08 05:17:00,
2013-07-08 06:22:00,55.5,52.3,30.61,ESE,120,0.0,0.0,89,0.00,OVC,,0.00,11.0,WeatherDisplay:10.37,2013-07-08 05:22:00,
2013-07-08 06:27:00,55.5,52.3,30.61,ESE,119,3.5,3.5,89,0.00,OVC,,0.00,14.0,WeatherDisplay:10.37,2013-07-08 05:27:00,
2013-07-08 06:32:00,55.5,52.3,30.61,ESE,120,3.5,3.5,89,0.00,OVC,,0.00,16.0,WeatherDisplay:10.37,2013-07-08 05:32:00,
2013-07-08 06:37:00,55.5,52.3,30.61,ESE,119,3.5,3.5,89,0.00,OVC,,0.00,16.0,WeatherDisplay:10.37,2013-07-08 05:37:00,
2013-07-08 06:42:00,55.6,52.4,30.61,ESE,119,3.5,3.5,89,0.00,OVC,,0.00,18.0,WeatherDisplay:10.37,2013-07-08 05:42:00,
2013-07-08 06:47:00,55.6,52.4,30.61,ESE,119,4.0,4.0,89,0.00,OVC,,0.00,19.0,WeatherDisplay:10.37,2013-07-08 05:47:00,
2013-07-08 06:52:00,55.6,52.4,30.61,ESE,119,4.6,4.6,89,0.00,OVC,,0.00,23.0,WeatherDisplay:10.37,2013-07-08 05:52:00,
2013-07-08 06:57:00,55.6,52.4,30.61,ESE,118,5.0,5.0,89,0.00,OVC,,0.00,25.0,WeatherDisplay:10.37,2013-07-08 05:57:00,
2013-07-08 07:02:00,55.5,52.3,30.61,ESE,119,3.5,3.5,89,0.00,BKN,,0.00,25.0,WeatherDisplay:10.37,2013-07-08 06:02:00,
2013-07-08 07:07:00,55.5,52.3,30.61,ESE,119,3.5,3.5,89,0.00,OVC,,0.00,19.0,WeatherDisplay:10.37,2013-07-08 06:07:00,
2013-07-08 07:12:00,55.5,52.3,30.61,ESE,120,3.5,3.5,89,0.00,OVC,,0.00,26.0,WeatherDisplay:10.37,2013-07-08 06:12:00,
2013-07-08 07:17:00,55.5,52.3,30.61,ESE,119,2.3,2.3,89,0.00,OVC,,0.00,37.0,WeatherDisplay:10.37,2013-07-08 06:17:00,
2013-07-08 07:22:00,55.6,52.4,30.61,ESE,120,3.5,3.5,89,0.00,BKN,,0.00,44.0,WeatherDisplay:10.37,2013-07-08 06:22:00,
2013-07-08 07:27:00,55.6,52.4,30.61,ESE,119,3.5,3.5,89,0.00,BKN,,0.00,47.0,WeatherDisplay:10.37,2013-07-08 06:27:00,
2013-07-08 07:32:00,55.7,52.5,30.61,ESE,120,3.5,3.5,89,0.00,BKN,,0.00,40.0,WeatherDisplay:10.37,2013-07-08 06:32:00,
2013-07-08 07:37:00,55.7,52.5,30.61,ESE,119,3.5,3.5,89,0.00,BKN,,0.00,30.0,WeatherDisplay:10.37,2013-07-08 06:37:00,
2013-07-08 07:42:00,55.7,52.5,30.61,ESE,120,2.3,2.3,89,0.00,OVC,,0.00,25.0,WeatherDisplay:10.37,2013-07-08 06:42:00,
2013-07-08 07:47:00,55.8,52.6,30.62,ESE,119,3.5,3.5,89,0.00,OVC,,0.00,28.0,WeatherDisplay:10.37,2013-07-08 06:47:00,
2013-07-08 07:52:00,55.8,52.3,30.62,ESE,120,3.5,3.5,88,0.00,OVC,,0.00,37.0,WeatherDisplay:10.37,2013-07-08 06:52:00,
2013-07-08 07:57:00,55.8,52.3,30.62,ESE,119,2.3,2.3,88,0.00,OVC,,0.00,33.0,WeatherDisplay:10.37,2013-07-08 06:57:00,
2013-07-08 08:02:00,55.9,52.4,30.62,ESE,120,3.5,3.5,88,0.00,OVC,,0.00,37.0,WeatherDisplay:10.37,2013-07-08 07:02:00,
2013-07-08 08:07:00,55.9,52.4,30.62,ESE,119,3.5,3.5,88,0.00,OVC,,0.00,53.0,WeatherDisplay:10.37,2013-07-08 07:07:00,
2013-07-08 08:12:00,56.0,52.5,30.62,ESE,119,3.5,3.5,88,0.00,BKN,,0.00,58.0,WeatherDisplay:10.37,2013-07-08 07:12:00,
2013-07-08 08:17:00,56.1,52.6,30.62,ESE,120,3.5,3.5,88,0.00,BKN,,0.00,62.0,WeatherDisplay:10.37,2013-07-08 07:17:00,
2013-07-08 08:22:00,56.2,52.7,30.62,ESE,119,2.3,2.3,88,0.00,BKN,,0.00,67.0,WeatherDisplay:10.37,2013-07-08 07:22:00,
2013-07-08 08:27:00,56.2,52.7,30.62,ESE,119,3.5,3.5,88,0.00,BKN,,0.00,67.0,WeatherDisplay:10.37,2013-07-08 07:27:00,
2013-07-08 08:32:00,56.3,52.8,30.62,ESE,119,2.0,2.0,88,0.00,BKN,,0.00,74.0,WeatherDisplay:10.37,2013-07-08 07:32:00,
2013-07-08 08:37:00,56.4,52.9,30.62,ESE,119,3.5,3.5,88,0.00,BKN,,0.00,79.0,WeatherDisplay:10.37,2013-07-08 07:37:00,
2013-07-08 08:42:00,56.5,53.0,30.62,ESE,120,3.5,3.5,88,0.00,BKN,,0.00,84.0,WeatherDisplay:10.37,2013-07-08 07:42:00,
2013-07-08 08:47:00,56.6,52.8,30.62,ESE,119,2.3,2.3,87,0.00,BKN,,0.00,95.0,WeatherDisplay:10.37,2013-07-08 07:47:00,
2013-07-08 08:52:00,56.7,52.9,30.62,ESE,119,2.0,2.0,87,0.00,BKN,,0.00,105.0,WeatherDisplay:10.37,2013-07-08 07:52:00,
2013-07-08 08:57:00,56.9,53.1,30.62,ESE,119,3.5,3.5,87,0.00,BKN,,0.00,113.0,WeatherDisplay:10.37,2013-07-08 07:57:00,
2013-07-08 09:02:00,57.0,53.2,30.62,ESE,119,3.5,3.5,87,0.00,BKN,,0.00,118.0,WeatherDisplay:10.37,2013-07-08 08:02:00,
2013-07-08 09:07:00,57.3,53.5,30.61,ESE,119,0.0,0.0,87,0.00,BKN,,0.00,123.0,WeatherDisplay:10.37,2013-07-08 08:07:00,
2013-07-08 09:12:00,57.3,53.1,30.61,ESE,119,0.0,0.0,86,0.00,BKN,,0.00,121.0,WeatherDisplay:10.37,2013-07-08 08:12:00,
2013-07-08 09:17:00,57.3,53.1,30.61,ESE,119,0.0,0.0,86,0.00,BKN,,0.00,130.0,WeatherDisplay:10.37,2013-07-08 08:17:00,
2013-07-08 09:22:00,57.3,52.8,30.61,ESE,119,0.0,0.0,85,0.00,BKN,,0.00,135.0,WeatherDisplay:10.37,2013-07-08 08:22:00,
2013-07-08 09:27:00,57.5,53.3,30.61,ESE,120,1.2,1.2,86,0.00,BKN,,0.00,151.0,WeatherDisplay:10.37,2013-07-08 08:27:00,
2013-07-08 09:32:00,57.8,53.6,30.61,ESE,119,2.0,2.0,86,0.00,BKN,,0.00,148.0,WeatherDisplay:10.37,2013-07-08 08:32:00,
2013-07-08 09:37:00,58.0,53.5,30.61,ESE,119,3.5,3.5,85,0.00,BKN,,0.00,163.0,WeatherDisplay:10.37,2013-07-08 08:37:00,
2013-07-08 09:42:00,58.2,53.7,30.61,ESE,119,2.3,2.3,85,0.00,BKN,,0.00,185.0,WeatherDisplay:10.37,2013-07-08 08:42:00,
2013-07-08 09:47:00,58.4,53.9,30.61,ESE,119,3.5,3.5,85,0.00,BKN,,0.00,200.0,WeatherDisplay:10.37,2013-07-08 08:47:00,
2013-07-08 09:52:00,58.7,53.9,30.61,ESE,119,2.3,2.3,84,0.00,BKN,,0.00,218.0,WeatherDisplay:10.37,2013-07-08 08:52:00,
2013-07-08 09:57:00,59.0,54.2,30.61,ESE,118,0.0,0.6,84,0.00,BKN,,0.00,221.0,WeatherDisplay:10.37,2013-07-08 08:57:00,
2013-07-08 10:02:00,59.3,54.1,30.61,ESE,119,0.0,0.0,83,0.00,BKN,,0.00,223.0,WeatherDisplay:10.37,2013-07-08 09:02:00,
2013-07-08 10:07:00,59.6,54.4,30.60,SE,128,4.0,4.0,83,0.00,BKN,,0.00,255.0,WeatherDisplay:10.37,2013-07-08 09:07:00,
2013-07-08 10:12:00,59.9,54.4,30.60,SE,129,0.0,0.0,82,0.00,BKN,,0.00,237.0,WeatherDisplay:10.37,2013-07-08 09:12:00,
2013-07-08 10:17:00,60.2,54.7,30.60,SE,130,3.5,3.5,82,0.00,BKN,,0.00,269.0,WeatherDisplay:10.37,2013-07-08 09:17:00,
2013-07-08 10:22:00,60.5,55.0,30.60,ESE,122,3.5,0.0,82,0.00,BKN,,0.00,512.0,WeatherDisplay:10.37,2013-07-08 09:22:00,
2013-07-08 10:27:00,60.9,55.0,30.60,ESE,122,0.0,0.0,81,0.00,SCT,,0.00,355.0,WeatherDisplay:10.37,2013-07-08 09:27:00,
2013-07-08 10:32:00,61.4,55.5,30.59,ESE,121,3.0,3.0,81,0.00,SCT,,0.00,504.0,WeatherDisplay:10.37,2013-07-08 09:32:00,
2013-07-08 10:37:00,62.1,55.5,30.59,ESE,123,1.2,1.2,79,0.00,SCT,,0.00,543.0,WeatherDisplay:10.37,2013-07-08 09:37:00,
2013-07-08 10:43:00,62.7,55.7,30.59,ESE,122,1.0,1.0,78,0.00,FEW,,0.00,594.0,WeatherDisplay:10.37,2013-07-08 09:43:00,
2013-07-08 10:48:00,63.4,56.4,30.59,ESE,122,1.2,0.0,78,0.00,FEW,,0.00,427.0,WeatherDisplay:10.37,2013-07-08 09:48:00,
2013-07-08 10:53:00,64.3,56.6,30.59,ESE,122,3.0,3.0,76,0.00,FEW,,0.00,649.0,WeatherDisplay:10.37,2013-07-08 09:53:00,
2013-07-08 10:58:00,65.3,56.8,30.59,SE,128,3.5,3.5,74,0.00,SCT,,0.00,612.0,WeatherDisplay:10.37,2013-07-08 09:58:00,
2013-07-08 11:03:00,66.3,57.4,30.58,SE,130,3.5,3.5,73,0.00,FEW,,0.00,613.0,WeatherDisplay:10.37,2013-07-08 10:03:00,
2013-07-08 11:08:00,67.1,57.4,30.58,SE,131,3.5,3.5,71,0.00,FEW,,0.00,610.0,WeatherDisplay:10.37,2013-07-08 10:08:00,
2013-07-08 11:13:00,67.7,57.6,30.58,SE,130,4.0,4.0,70,0.00,FEW,,0.00,619.0,WeatherDisplay:10.37,2013-07-08 10:13:00,
2013-07-08 11:18:00,68.4,57.4,30.58,SE,131,3.5,3.5,68,0.00,FEW,,0.00,638.0,WeatherDisplay:10.37,2013-07-08 10:18:00,
2013-07-08 11:23:00,69.0,58.0,30.58,SE,131,1.2,1.2,68,0.00,FEW,,0.00,619.0,WeatherDisplay:10.37,2013-07-08 10:23:00,
2013-07-08 11:28:00,69.5,58.5,30.58,ESE,123,3.5,3.5,68,0.00,FEW,,0.00,606.0,WeatherDisplay:10.37,2013-07-08 10:28:00,
2013-07-08 11:33:00,69.7,59.1,30.58,ESE,119,2.3,2.3,69,0.00,FEW,,0.00,636.0,WeatherDisplay:10.37,2013-07-08 10:33:00,
2013-07-08 11:38:00,70.2,58.7,30.58,ESE,119,1.2,0.0,67,0.00,FEW,,0.00,636.0,WeatherDisplay:10.37,2013-07-08 10:38:00,
2013-07-08 11:43:00,70.5,59.0,30.57,ESE,118,1.2,0.0,67,0.00,FEW,,0.00,612.0,WeatherDisplay:10.37,2013-07-08 10:43:00,
2013-07-08 11:48:00,70.4,58.5,30.57,ESE,113,1.2,1.2,66,0.00,FEW,,0.00,605.0,WeatherDisplay:10.37,2013-07-08 10:48:00,
2013-07-08 11:53:00,70.4,58.9,30.57,ESE,113,3.5,3.5,67,0.00,FEW,,0.00,635.0,WeatherDisplay:10.37,2013-07-08 10:53:00,
2013-07-08 11:58:00,70.7,59.2,30.57,ESE,114,2.3,2.3,67,0.00,FEW,,0.00,638.0,WeatherDisplay:10.37,2013-07-08 10:58:00,
2013-07-08 12:03:00,71.1,60.0,30.57,ESE,109,3.5,3.5,68,0.00,FEW,,0.00,675.0,WeatherDisplay:10.37,2013-07-08 11:03:00,
2013-07-08 12:08:00,71.6,59.2,30.57,NE,37,2.3,2.3,65,0.00,FEW,,0.00,619.0,WeatherDisplay:10.37,2013-07-08 11:08:00,
2013-07-08 12:13:00,72.0,60.0,30.57,ENE,64,3.5,3.5,66,0.00,FEW,,0.00,654.0,WeatherDisplay:10.37,2013-07-08 11:13:00,
2013-07-08 12:18:00,72.5,60.5,30.56,ENE,64,1.2,0.0,66,0.00,FEW,,0.00,668.0,WeatherDisplay:10.37,2013-07-08 11:18:00,
2013-07-08 12:23:00,72.9,60.4,30.56,ENE,64,0.0,0.0,65,0.00,FEW,,0.00,693.0,WeatherDisplay:10.37,2013-07-08 11:23:00,
2013-07-08 12:28:00,73.1,60.2,30.56,NNE,18,2.3,2.3,64,0.00,FEW,,0.00,636.0,WeatherDisplay:10.37,2013-07-08 11:28:00,
2013-07-08 12:33:00,73.3,60.4,30.56,NNE,18,1.2,1.2,64,0.00,FEW,,0.00,642.0,WeatherDisplay:10.37,2013-07-08 11:33:00,
2013-07-08 12:38:00,73.5,61.0,30.56,NNE,14,0.0,0.0,65,0.00,FEW,,0.00,638.0,WeatherDisplay:10.37,2013-07-08 11:38:00,
2013-07-08 12:43:00,73.8,60.9,30.56,NNE,13,1.2,0.0,64,0.00,SCT,,0.00,504.0,WeatherDisplay:10.37,2013-07-08 11:43:00,
2013-07-08 12:48:00,74.1,60.2,30.56,NNE,13,1.2,0.0,62,0.00,SCT,,0.00,515.0,WeatherDisplay:10.37,2013-07-08 11:48:00,
2013-07-08 12:53:00,74.3,60.9,30.56,NNW,348,1.2,1.2,63,0.00,SCT,,0.00,504.0,WeatherDisplay:10.37,2013-07-08 11:53:00,
2013-07-08 12:58:00,74.3,60.4,30.55,NNW,342,1.2,1.2,62,0.00,SCT,,0.00,601.0,WeatherDisplay:10.37,2013-07-08 11:58:00,
2013-07-08 13:03:00,74.6,60.3,30.56,NNW,342,0.0,0.0,61,0.00,SCT,,0.00,624.0,WeatherDisplay:10.37,2013-07-08 12:03:00,
2013-07-08 13:08:00,74.8,60.4,30.56,NNW,346,2.3,2.3,61,0.00,SCT,,0.00,626.0,WeatherDisplay:10.37,2013-07-08 12:08:00,
2013-07-08 13:13:00,74.9,60.1,30.56,NNW,346,1.2,0.0,60,0.00,SCT,,0.00,592.0,WeatherDisplay:10.37,2013-07-08 12:13:00,
2013-07-08 13:18:00,74.9,60.5,30.56,NW,315,3.5,3.5,61,0.00,SCT,,0.00,573.0,WeatherDisplay:10.37,2013-07-08 12:18:00,
2013-07-08 13:23:00,75.0,60.2,30.55,NW,311,3.5,3.5,60,0.00,SCT,,0.00,575.0,WeatherDisplay:10.37,2013-07-08 12:23:00,
2013-07-08 13:28:00,75.2,60.8,30.55,NW,311,1.2,1.2,61,0.00,SCT,,0.00,552.0,WeatherDisplay:10.37,2013-07-08 12:28:00,
2013-07-08 13:33:00,75.6,60.7,30.55,NW,311,1.2,1.2,60,0.00,SCT,,0.00,541.0,WeatherDisplay:10.37,2013-07-08 12:33:00,
2013-07-08 13:38:00,75.8,60.9,30.55,NW,311,1.2,0.0,60,0.00,SCT,,0.00,548.0,WeatherDisplay:10.37,2013-07-08 12:38:00,
2013-07-08 13:43:00,76.1,60.2,30.55,NW,311,0.0,0.0,58,0.00,SCT,,0.00,555.0,WeatherDisplay:10.37,2013-07-08 12:43:00,
2013-07-08 13:48:00,76.3,60.9,30.55,NW,311,1.2,1.2,59,0.00,SCT,,0.00,570.0,WeatherDisplay:10.37,2013-07-08 12:48:00,
2013-07-08 13:53:00,76.7,61.3,30.55,NW,311,1.0,1.0,59,0.00,SCT,,0.00,585.0,WeatherDisplay:10.37,2013-07-08 12:53:00,
2013-07-08 13:58:00,77.0,61.1,30.55,NW,309,1.2,0.0,58,0.00,SCT,,0.00,584.0,WeatherDisplay:10.37,2013-07-08 12:58:00,
2013-07-08 14:03:00,77.4,61.9,30.54,NW,315,1.2,1.2,59,0.00,SCT,,0.00,594.0,WeatherDisplay:10.37,2013-07-08 13:03:00,
2013-07-08 14:08:00,77.8,60.3,30.54,WNW,286,4.0,4.0,55,0.00,SCT,,0.00,596.0,WeatherDisplay:10.37,2013-07-08 13:08:00,
2013-07-08 14:13:00,78.2,61.7,30.54,WSW,245,2.3,2.3,57,0.00,SCT,,0.00,589.0,WeatherDisplay:10.37,2013-07-08 13:13:00,
2013-07-08 14:18:00,78.5,61.0,30.54,WSW,245,1.2,1.2,55,0.00,SCT,,0.00,580.0,WeatherDisplay:10.37,2013-07-08 13:18:00,
2013-07-08 14:23:00,78.5,60.5,30.53,WSW,246,1.2,1.2,54,0.00,SCT,,0.00,575.0,WeatherDisplay:10.37,2013-07-08 13:23:00,
2013-07-08 14:28:00,78.5,61.5,30.53,WSW,246,1.2,1.2,56,0.00,SCT,,0.00,566.0,WeatherDisplay:10.37,2013-07-08 13:28:00,
2013-07-08 14:33:00,78.7,61.7,30.53,WSW,246,1.2,0.0,56,0.00,SCT,,0.00,559.0,WeatherDisplay:10.37,2013-07-08 13:33:00,
2013-07-08 14:38:00,79.1,61.0,30.53,SW,217,3.5,3.5,54,0.00,SCT,,0.00,554.0,WeatherDisplay:10.37,2013-07-08 13:38:00,
2013-07-08 14:43:00,79.4,61.3,30.53,SW,217,1.2,0.0,54,0.00,SCT,,0.00,541.0,WeatherDisplay:10.37,2013-07-08 13:43:00,
2013-07-08 14:48:00,79.5,61.9,30.53,SW,217,1.2,0.0,55,0.00,SCT,,0.00,536.0,WeatherDisplay:10.37,2013-07-08 13:48:00,
2013-07-08 14:53:00,79.7,61.6,30.52,SW,217,1.2,1.2,54,0.00,SCT,,0.00,534.0,WeatherDisplay:10.37,2013-07-08 13:53:00,
2013-07-08 14:58:00,80.0,62.4,30.52,SW,217,1.2,1.2,55,0.00,SCT,,0.00,517.0,WeatherDisplay:10.37,2013-07-08 13:58:00,
2013-07-08 15:03:00,80.1,60.9,30.52,SW,217,3.5,3.5,52,0.00,SCT,,0.00,504.0,WeatherDisplay:10.37,2013-07-08 14:03:00,
2013-07-08 15:08:00,80.3,61.1,30.52,SW,217,1.2,1.2,52,0.00,SCT,,0.00,506.0,WeatherDisplay:10.37,2013-07-08 14:08:00,
2013-07-08 15:13:00,80.5,61.8,30.52,SW,214,4.0,4.0,53,0.00,SCT,,0.00,499.0,WeatherDisplay:10.37,2013-07-08 14:13:00,
2013-07-08 15:18:00,80.7,61.4,30.52,SSW,212,1.0,1.0,52,0.00,SCT,,0.00,494.0,WeatherDisplay:10.37,2013-07-08 14:18:00,
2013-07-08 15:23:00,81.0,61.7,30.52,SW,217,1.2,0.0,52,0.00,SCT,,0.00,480.0,WeatherDisplay:10.37,2013-07-08 14:23:00,
2013-07-08 15:28:00,81.0,60.6,30.52,West,260,1.2,1.2,50,0.00,SCT,,0.00,461.0,WeatherDisplay:10.37,2013-07-08 14:28:00,
2013-07-08 15:33:00,80.9,61.1,30.51,NW,315,1.0,1.0,51,0.00,SCT,,0.00,466.0,WeatherDisplay:10.37,2013-07-08 14:33:00,
2013-07-08 15:38:00,80.6,60.8,30.51,NW,319,1.2,1.2,51,0.00,SCT,,0.00,436.0,WeatherDisplay:10.37,2013-07-08 14:38:00,
2013-07-08 15:43:00,80.5,61.8,30.51,NW,319,0.0,0.0,53,0.00,SCT,,0.00,438.0,WeatherDisplay:10.37,2013-07-08 14:43:00,
2013-07-08 15:48:00,80.6,61.9,30.51,NW,315,2.3,0.0,53,0.00,SCT,,0.00,429.0,WeatherDisplay:10.37,2013-07-08 14:48:00,
2013-07-08 15:53:00,80.8,60.4,30.51,NW,315,1.2,1.2,50,0.00,SCT,,0.00,381.0,WeatherDisplay:10.37,2013-07-08 14:53:00,
2013-07-08 15:58:00,81.0,61.2,30.51,NW,315,1.2,0.0,51,0.00,SCT,,0.00,396.0,WeatherDisplay:10.37,2013-07-08 14:58:00,
2013-07-08 16:04:00,81.0,61.2,30.51,NW,315,0.0,0.0,51,0.00,SCT,,0.00,237.0,WeatherDisplay:10.37,2013-07-08 15:04:00,
2013-07-08 16:09:00,80.8,61.0,30.51,NW,315,1.2,0.0,51,0.00,BKN,,0.00,304.0,WeatherDisplay:10.37,2013-07-08 15:09:00,
2013-07-08 16:14:00,80.6,61.3,30.51,NW,314,2.3,0.0,52,0.00,BKN,,0.00,338.0,WeatherDisplay:10.37,2013-07-08 15:14:00,
2013-07-08 16:19:00,80.7,60.9,30.51,NE,48,4.0,4.0,51,0.00,SCT,,0.00,345.0,WeatherDisplay:10.37,2013-07-08 15:19:00,
2013-07-08 16:24:00,80.8,61.5,30.51,East,97,1.2,0.0,52,0.00,SCT,,0.00,330.0,WeatherDisplay:10.37,2013-07-08 15:24:00,
2013-07-08 16:29:00,81.1,61.8,30.50,East,98,1.0,0.0,52,0.00,SCT,,0.00,311.0,WeatherDisplay:10.37,2013-07-08 15:29:00,
2013-07-08 16:34:00,81.2,61.9,30.50,East,98,1.2,0.0,52,0.00,BKN,,0.00,265.0,WeatherDisplay:10.37,2013-07-08 15:34:00,
2013-07-08 16:39:00,81.2,61.4,30.50,East,98,0.0,0.0,51,0.00,BKN,,0.00,294.0,WeatherDisplay:10.37,2013-07-08 15:39:00,
2013-07-08 16:44:00,81.1,61.3,30.50,East,97,0.0,0.1,51,0.00,BKN,,0.00,269.0,WeatherDisplay:10.37,2013-07-08 15:44:00,
2013-07-08 16:49:00,80.9,61.6,30.50,ENE,71,0.0,0.3,52,0.00,BKN,,0.00,262.0,WeatherDisplay:10.37,2013-07-08 15:49:00,
2013-07-08 16:54:00,80.8,61.5,30.49,ENE,70,2.3,2.3,52,0.00,BKN,,0.00,229.0,WeatherDisplay:10.37,2013-07-08 15:54:00,
2013-07-08 16:59:00,80.6,60.8,30.49,ENE,68,1.2,1.2,51,0.00,BKN,,0.00,183.0,WeatherDisplay:10.37,2013-07-08 15:59:00,
2013-07-08 17:04:00,80.6,60.8,30.49,ENE,69,3.0,3.0,51,0.00,BKN,,0.00,153.0,WeatherDisplay:10.37,2013-07-08 16:04:00,
2013-07-08 17:09:00,80.4,60.1,30.49,ENE,72,1.2,1.2,50,0.00,BKN,,0.00,100.0,WeatherDisplay:10.37,2013-07-08 16:09:00,
2013-07-08 17:14:00,80.3,60.5,30.49,ENE,67,2.3,2.3,51,0.00,BKN,,0.00,76.0,WeatherDisplay:10.37,2013-07-08 16:14:00,
2013-07-08 17:19:00,80.3,61.6,30.49,East,86,0.0,0.1,53,0.00,BKN,,0.00,56.0,WeatherDisplay:10.37,2013-07-08 16:19:00,
2013-07-08 17:24:00,80.2,61.5,30.49,East,86,2.3,2.3,53,0.00,OVC,,0.00,54.0,WeatherDisplay:10.37,2013-07-08 16:24:00,
2013-07-08 17:29:00,80.1,62.0,30.49,East,84,2.3,0.0,54,0.00,OVC,,0.00,51.0,WeatherDisplay:10.37,2013-07-08 16:29:00,
2013-07-08 17:34:00,79.9,61.8,30.48,East,84,0.0,0.0,54,0.00,OVC,,0.00,49.0,WeatherDisplay:10.37,2013-07-08 16:34:00,
2013-07-08 17:39:00,79.7,61.6,30.48,East,84,1.0,0.0,54,0.00,OVC,,0.00,47.0,WeatherDisplay:10.37,2013-07-08 16:39:00,
2013-07-08 17:44:00,79.4,61.3,30.48,East,84,1.2,1.2,54,0.00,OVC,,0.00,46.0,WeatherDisplay:10.37,2013-07-08 16:44:00,
2013-07-08 17:49:00,79.2,61.6,30.48,East,85,1.2,0.0,55,0.00,OVC,,0.00,46.0,WeatherDisplay:10.37,2013-07-08 16:49:00,
2013-07-08 17:54:00,79.0,62.0,30.48,East,84,3.0,3.0,56,0.00,OVC,,0.00,46.0,WeatherDisplay:10.37,2013-07-08 16:54:00,
2013-07-08 17:59:00,78.7,61.2,30.48,East,86,1.2,0.0,55,0.00,OVC,,0.00,44.0,WeatherDisplay:10.37,2013-07-08 16:59:00,
2013-07-08 18:05:00,78.5,59.9,30.48,East,83,2.3,2.3,53,0.00,OVC,,0.00,44.0,WeatherDisplay:10.37,2013-07-08 17:05:00,
2013-07-08 18:10:00,78.2,60.2,30.48,East,84,0.0,0.0,54,0.00,OVC,,0.00,44.0,WeatherDisplay:10.37,2013-07-08 17:10:00,
2013-07-08 18:15:00,77.9,60.4,30.47,East,98,6.9,6.9,55,0.00,OVC,,0.00,42.0,WeatherDisplay:10.37,2013-07-08 17:15:00,
2013-07-08 18:20:00,77.7,60.8,30.47,ESE,107,4.6,4.6,56,0.00,OVC,,0.00,42.0,WeatherDisplay:10.37,2013-07-08 17:20:00,
2013-07-08 18:25:00,77.6,60.7,30.47,ESE,111,2.3,0.0,56,0.00,OVC,,0.00,35.0,WeatherDisplay:10.37,2013-07-08 17:25:00,
2013-07-08 18:31:00,77.4,61.0,30.47,ESE,111,0.0,0.0,57,0.00,OVC,,0.00,30.0,WeatherDisplay:10.37,2013-07-08 17:31:00,
2013-07-08 18:36:00,77.2,60.8,30.47,ESE,112,4.6,4.6,57,0.00,OVC,,0.00,37.0,WeatherDisplay:10.37,2013-07-08 17:36:00,
2013-07-08 18:41:00,77.0,62.0,30.47,ESE,111,1.2,1.2,60,0.00,OVC,,0.00,44.0,WeatherDisplay:10.37,2013-07-08 17:41:00,
2013-07-08 18:46:00,76.7,60.8,30.47,ESE,112,4.0,4.0,58,0.00,BKN,,0.00,47.0,WeatherDisplay:10.37,2013-07-08 17:46:00,
2013-07-08 18:52:00,76.4,61.0,30.47,ESE,112,5.8,5.8,59,0.00,OVC,,0.00,53.0,WeatherDisplay:10.37,2013-07-08 17:52:00,
2013-07-08 18:57:00,76.2,61.3,30.47,ESE,117,6.0,6.0,60,0.00,BKN,,0.00,56.0,WeatherDisplay:10.37,2013-07-08 17:57:00,
2013-07-08 19:04:00,76.0,61.6,30.47,ESE,106,4.6,4.6,61,0.00,BKN,,0.00,58.0,WeatherDisplay:10.37,2013-07-08 18:04:00,
2013-07-08 19:09:00,75.9,61.0,30.47,ESE,114,3.5,3.5,60,0.00,BKN,,0.00,54.0,WeatherDisplay:10.37,2013-07-08 18:09:00,
2013-07-08 19:14:00,75.9,61.9,30.47,ESE,116,3.5,3.5,62,0.00,BKN,,0.00,51.0,WeatherDisplay:10.37,2013-07-08 18:14:00,
2013-07-08 19:19:00,75.8,61.4,30.47,ESE,115,3.5,3.5,61,0.00,BKN,,0.00,46.0,WeatherDisplay:10.37,2013-07-08 18:19:00,
2013-07-08 19:25:00,75.7,61.8,30.47,ESE,117,3.5,3.5,62,0.00,BKN,,0.00,39.0,WeatherDisplay:10.37,2013-07-08 18:25:00,
2013-07-08 19:30:00,75.7,60.8,30.46,ESE,116,4.0,4.0,60,0.00,BKN,,0.00,33.0,WeatherDisplay:10.37,2013-07-08 18:30:00,
2013-07-08 19:35:00,75.6,61.7,30.46,ESE,116,1.2,0.0,62,0.00,BKN,,0.00,28.0,WeatherDisplay:10.37,2013-07-08 18:35:00,
2013-07-08 19:41:00,75.5,61.1,30.47,ESE,117,3.5,3.5,61,0.00,BKN,,0.00,28.0,WeatherDisplay:10.37,2013-07-08 18:41:00,
2013-07-08 19:46:00,75.4,61.0,30.46,ESE,117,1.2,1.2,61,0.00,BKN,,0.00,30.0,WeatherDisplay:10.37,2013-07-08 18:46:00,
2013-07-08 19:52:00,75.3,60.9,30.46,ESE,116,1.0,0.0,61,0.00,BKN,,0.00,32.0,WeatherDisplay:10.37,2013-07-08 18:52:00,
2013-07-08 19:58:00,75.2,60.8,30.46,ESE,117,0.0,0.0,61,0.00,BKN,,0.00,33.0,WeatherDisplay:10.37,2013-07-08 18:58:00,
2013-07-08 20:03:00,75.0,61.1,30.46,ESE,117,0.0,0.0,62,0.00,BKN,,0.00,33.0,WeatherDisplay:10.37,2013-07-08 19:03:00,
2013-07-08 20:09:00,74.9,61.5,30.46,ESE,117,0.0,0.0,63,0.00,BKN,,0.00,33.0,WeatherDisplay:10.37,2013-07-08 19:09:00,
2013-07-08 20:14:00,74.7,61.7,30.46,ESE,115,1.2,1.2,64,0.00,BKN,,0.00,30.0,WeatherDisplay:10.37,2013-07-08 19:14:00,
2013-07-08 20:19:00,74.5,62.0,30.46,ESE,117,1.2,1.2,65,0.00,BKN,,0.00,28.0,WeatherDisplay:10.37,2013-07-08 19:19:00,
2013-07-08 20:26:00,74.4,62.3,30.46,ESE,117,1.2,0.0,66,0.00,BKN,,0.00,25.0,WeatherDisplay:10.37,2013-07-08 19:26:00,
2013-07-08 20:32:00,74.2,62.1,30.46,ESE,117,0.0,0.0,66,0.00,BKN,,0.00,21.0,WeatherDisplay:10.37,2013-07-08 19:32:00,
2013-07-08 20:37:00,74.0,62.3,30.46,ESE,117,0.0,0.0,67,0.00,BKN,,0.00,18.0,WeatherDisplay:10.37,2013-07-08 19:37:00,
2013-07-08 20:43:00,73.7,62.1,30.46,ESE,117,0.0,0.0,67,0.00,BKN,,0.00,16.0,WeatherDisplay:10.37,2013-07-08 19:43:00,
2013-07-08 20:48:00,73.5,61.9,30.46,ESE,117,0.0,0.0,67,0.00,BKN,,0.00,18.0,WeatherDisplay:10.37,2013-07-08 19:48:00,
2013-07-08 20:54:00,73.2,62.0,30.46,ESE,116,0.0,0.0,68,0.00,BKN,,0.00,19.0,WeatherDisplay:10.37,2013-07-08 19:54:00,
2013-07-08 21:00:00,73.0,61.8,30.46,ESE,117,0.0,0.0,68,0.00,BKN,,0.00,19.0,WeatherDisplay:10.37,2013-07-08 20:00:00,
2013-07-08 21:05:00,72.7,61.5,30.46,ESE,116,0.0,0.0,68,0.00,BKN,,0.00,18.0,WeatherDisplay:10.37,2013-07-08 20:05:00,
2013-07-08 21:10:00,72.4,61.7,30.46,ESE,117,0.0,0.0,69,0.00,BKN,,0.00,14.0,WeatherDisplay:10.37,2013-07-08 20:10:00,
2013-07-08 21:16:00,72.2,61.5,30.46,ESE,117,0.0,0.0,69,0.00,BKN,,0.00,12.0,WeatherDisplay:10.37,2013-07-08 20:16:00,
2013-07-08 21:21:00,71.9,61.2,30.46,ESE,117,0.0,0.0,69,0.00,BKN,,0.00,11.0,WeatherDisplay:10.37,2013-07-08 20:21:00,
2013-07-08 21:26:00,71.6,60.9,30.46,ESE,117,0.0,0.0,69,0.00,BKN,,0.00,9.0,WeatherDisplay:10.37,2013-07-08 20:26:00,
2013-07-08 21:33:00,71.3,61.0,30.46,ESE,117,0.0,0.0,70,0.00,BKN,,0.00,7.0,WeatherDisplay:10.37,2013-07-08 20:33:00,
2013-07-08 21:39:00,70.9,60.6,30.46,ESE,117,0.0,0.0,70,0.00,BKN,,0.00,5.0,WeatherDisplay:10.37,2013-07-08 20:39:00,
2013-07-08 21:44:00,70.6,60.3,30.46,ESE,117,0.0,0.0,70,0.00,BKN,,0.00,5.0,WeatherDisplay:10.37,2013-07-08 20:44:00,
2013-07-08 21:53:00,70.2,60.0,30.46,ESE,117,0.0,0.0,70,0.00,OVC,,0.00,0.0,WeatherDisplay:10.37,2013-07-08 20:53:00,
2013-07-08 21:58:00,69.9,59.7,30.46,ESE,117,0.0,0.0,70,0.00,OVC,,0.00,0.0,WeatherDisplay:10.37,2013-07-08 20:58:00,
2013-07-08 22:03:00,69.6,59.8,30.46,ESE,117,0.0,0.0,71,0.00,CLR,,0.00,0.0,WeatherDisplay:10.37,2013-07-08 21:03:00,
2013-07-08 22:08:00,69.3,59.5,30.46,ESE,117,0.0,0.0,71,0.00,CLR,,0.00,0.0,WeatherDisplay:10.37,2013-07-08 21:08:00,
2013-07-08 22:14:00,69.1,60.1,30.46,ESE,116,0.0,0.0,73,0.00,CLR,,0.00,0.0,WeatherDisplay:10.37,2013-07-08 21:14:00,
2013-07-08 22:19:00,68.7,59.7,30.46,ESE,117,0.0,0.0,73,0.00,CLR,,0.00,0.0,WeatherDisplay:10.37,2013-07-08 21:19:00,
2013-07-08 22:24:00,68.4,59.4,30.46,ESE,117,0.0,0.0,73,0.00,CLR,,0.00,0.0,WeatherDisplay:10.37,2013-07-08 21:24:00,
2013-07-08 22:29:00,68.1,59.1,30.46,ESE,117,0.0,0.0,73,0.00,CLR,,0.00,0.0,WeatherDisplay:10.37,2013-07-08 21:29:00,
2013-07-08 22:35:00,67.8,58.8,30.46,ESE,117,0.0,0.0,73,0.00,CLR,,0.00,0.0,WeatherDisplay:10.37,2013-07-08 21:35:00,
2013-07-08 22:42:00,67.5,58.9,30.46,ESE,116,0.0,0.0,74,0.00,CLR,,0.00,0.0,WeatherDisplay:10.37,2013-07-08 21:42:00,
2013-07-08 22:47:00,67.3,59.1,30.46,ESE,115,0.0,0.0,75,0.00,CLR,,0.00,0.0,WeatherDisplay:10.37,2013-07-08 21:47:00,
2013-07-08 22:53:00,67.0,58.8,30.46,ESE,115,0.0,0.0,75,0.00,CLR,,0.00,0.0,WeatherDisplay:10.37,2013-07-08 21:53:00,
2013-07-08 22:59:00,66.7,58.9,30.46,ESE,115,0.0,0.0,76,0.00,CLR,,0.00,0.0,WeatherDisplay:10.37,2013-07-08 21:59:00,
2013-07-08 23:04:00,66.4,58.6,30.46,ESE,116,0.0,0.0,76,0.00,CLR,,0.00,0.0,WeatherDisplay:10.37,2013-07-08 22:04:00,
2013-07-08 23:09:00,66.2,58.4,30.46,ESE,116,1.2,0.0,76,0.00,CLR,,0.00,0.0,WeatherDisplay:10.37,2013-07-08 22:09:00,
2013-07-08 23:14:00,66.0,58.6,30.46,ESE,115,0.0,0.0,77,0.00,CLR,,0.00,0.0,WeatherDisplay:10.37,2013-07-08 22:14:00,
2013-07-08 23:20:00,65.8,58.4,30.45,ESE,115,0.0,0.0,77,0.00,CLR,,0.00,0.0,WeatherDisplay:10.37,2013-07-08 22:20:00,
2013-07-08 23:26:00,65.6,58.2,30.45,ESE,115,0.0,0.0,77,0.00,CLR,,0.00,0.0,WeatherDisplay:10.37,2013-07-08 22:26:00,
2013-07-08 23:31:00,65.4,58.4,30.46,ESE,115,0.0,0.0,78,0.00,CLR,,0.00,0.0,WeatherDisplay:10.37,2013-07-08 22:31:00,
2013-07-08 23:36:00,65.3,58.3,30.46,ESE,115,0.0,0.0,78,0.00,CLR,,0.00,0.0,WeatherDisplay:10.37,2013-07-08 22:36:00,
2013-07-08 23:41:00,65.1,58.4,30.45,ESE,115,0.0,0.0,79,0.00,CLR,,0.00,0.0,WeatherDisplay:10.37,2013-07-08 22:41:00,
2013-07-08 23:46:00,65.0,58.3,30.45,ESE,115,0.0,0.0,79,0.00,CLR,,0.00,0.0,WeatherDisplay:10.37,2013-07-08 22:46:00,
2013-07-08 23:52:00,64.8,58.1,30.46,ESE,115,0.0,0.0,79,0.00,CLR,,0.00,0.0,WeatherDisplay:10.37,2013-07-08 22:52:00,
2013-07-08 23:57:00,64.7,58.4,30.46,ESE,115,0.0,0.0,80,0.00,CLR,,0.00,0.0,WeatherDisplay:10.37,2013-07-08 22:57:00,